Project,Study,Ord_Occ,Event_Num,Cast_ID,Date_Time_UTC,Date_Time_PST,Lat_Dec,Lon_Dec,Sta_ID,Line,Sta,Depth,Pressure,PrQ,Temp1,Temp1Q,Temp2,Temp2Q,TempAve,Salt1,Salt1Q,Salt1_Corr,Salt2,Salt2Q,Salt2_Corr,SaltAve_Corr,Ox1,Ox1Q,Ox1_CruiseCorr,Ox1_StaCorr,Ox2,Ox2Q,Ox2_CruiseCorr,Ox2_StaCorr,OxAve_StaCorr,Ox1uM,Ox1uM_CruiseCorr,Ox1uM_StaCorr,Ox2uM,Ox2uM_CruiseCorr,Ox2uM_StaCorr,OxAveuM_StaCorr,FluorV,FluorQ,EstChl_CruiseCorr,EstChl_StaCorr,ISUSV,ISUSQ,EstNO3_CruiseCorr,EstNO3_StaCorr,SigThetaTS1,SigThetaTS1Q,SigThetaTS2,SigThetaTS2Q,BAT,XMiss,TransQ,pH,pHQ,SPAR,SPARQ,PAR,PARQ,PoT1,PoT2,DynHt,SVA,OxSat1,OxSat2,BTL_Depth,BTL_Temp,SaltB,OxB,OxBuM,Chl-a,Phaeo,NO3,NO2,NH4,PO4,SIL
CalCOFI,2101RL,068,,2101_068d,01-Feb-2021 21:08:57,01-Feb-2021 13:08:57,34.05549,-122.94080,076.7 080.0,076.7,080.0,3.000,3.022,,12.8923,,12.8931,,12.8927,32.9028,,32.9086,32.9009,,32.9029,32.9058,5.8150,,6.0859,6.1713,5.6737,,6.0240,6.1050,6.1382,253.415,265.5350,218.1759,247.259,282.2539,215.9781,217.0770,0.0524,,0.1812,0.4475, ,, , ,24.7898,,24.7882,,0.7891,82.0974,,,,9.9417E+02,,1.9426E+01,,12.8919,12.8927,-0.0014,314.863,96.612,94.265,,,,,,,,,,,,
CalCOFI,2101RL,068,,2101_068d,01-Feb-2021 21:09:56,01-Feb-2021 13:09:56,34.05573,-122.94063,076.7 080.0,076.7,080.0,4.000,4.029,,12.8966,,12.8964,,12.8965,32.9024,,32.9082,32.9009,,32.9029,32.9056,5.8103,,6.0810,6.1663,5.6970,,6.0488,6.1303,6.1483,253.210,265.3204,218.0177,248.274,282.0259,216.7743,217.3960,0.0504,,0.1648,0.4221, ,, , ,24.7887,,24.7875,,0.7858,82.1643,,,,1.1061E+03,,1.7887E+01,,12.8961,12.8958,0.0178,314.992,96.542,94.659,4,,32.8923,6.064,264.70,0.411,0.065,,,,,
CalCOFI,2101RL,068,,2101_068d,01-Feb-2021 21:10:00,01-Feb-2021 13:10:00,34.05575,-122.94062,076.7 080.0,076.7,080.0,5.000,5.036,,12.8983,,12.8984,,12.8984,32.9019,,32.9077,32.9003,,32.9023,32.9050,5.8137,,6.0845,6.1699,5.7195,,6.0727,6.1546,6.1623,253.360,265.4774,218.1335,249.255,282.1927,217.5439,217.8387,0.0494,,0.1566,0.4080, ,, , ,24.7880,,24.7867,,0.7863,82.1546,,,,1.1075E+03,,1.5539E+01,,12.8976,12.8977,0.0215,315.084,96.602,95.036,,,,,,,,,,,,
CalCOFI,2101RL,068,,2101_068d,01-Feb-2021 21:10:03,01-Feb-2021 13:10:03,34.05577,-122.94061,076.7 080.0,076.7,080.0,6.000,6.043,,12.8984,,12.8983,,12.8984,32.9017,,32.9075,32.9001,,32.9021,32.9048,5.8079,,6.0784,6.1637,5.7149,,6.0678,6.1497,6.1567,253.105,265.2105,217.9367,249.054,281.9091,217.3862,217.6615,0.0542,,0.1959,0.4673, ,, , ,24.7878,,24.7866,,0.7886,82.1079,,,,1.1101E+03,,1.3200E+01,,12.8976,12.8975,0.0247,315.127,96.505,94.959,,,,,,,,,,,,
CalCOFI,2101RL,068,,2101_068d,01-Feb-2021 21:10:06,01-Feb-2021 13:10:06,34.05578,-122.94059,076.7 080.0,076.7,080.0,7.000,7.050,,12.8997,,12.9000,,12.8999,32.9016,,32.9074,32.8998,,32.9018,32.9046,5.8128,,6.0836,6.1689,5.6932,,6.0447,6.1261,6.1475,253.321,265.4366,218.1034,248.110,282.1493,216.6456,217.3745,0.0535,,0.1902,0.4600, ,, , ,24.7875,,24.7861,,0.7856,82.1677,,,,1.1105E+03,,1.1744E+01,,12.8987,12.8990,0.0280,315.182,96.590,94.602,,,,,,,,,,,,
CalCOFI,2101RL,068,,2101_068d,01-Feb-2021 21:10:09,01-Feb-2021 13:10:09,34.05578,-122.94058,076.7 080.0,076.7,080.0,8.000,8.058,,12.8873,,12.8842,,12.8858,32.9013,,32.9071,32.8996,,32.9016,32.9044,5.7997,,6.0699,6.1550,5.6874,,6.0386,6.1198,6.1374,252.751,264.8399,217.6636,247.853,281.5155,216.4440,217.0538,0.0604,,0.2467,0.5124, ,, , ,24.7897,,24.7891,,0.7864,82.1514,,,,1.1123E+03,,1.0112E+01,,12.8862,12.8831,0.0312,314.999,96.348,94.474,,,,,,,,,,,,
CalCOFI,2101RL,068,,2101_068d,01-Feb-2021 21:10:12,01-Feb-2021 13:10:12,34.05580,-122.94058,076.7 080.0,076.7,080.0,9.000,9.065,,12.8289,,12.8246,,12.8268,32.9033,,32.9091,32.9017,,32.9037,32.9064,5.7269,,5.9937,6.0774,5.6450,,5.9936,6.0739,6.0757,249.571,261.5111,215.2098,246.004,277.9793,214.9935,215.1017,0.0620,,0.2598,0.5183, ,, , ,24.8028,,24.8023,,0.7893,82.0923,,,,1.1089E+03,,8.8959E+00,,12.8277,12.8235,0.0343,313.784,95.024,93.656,,,,,,,,,,,,
CalCOFI,2101RL,068,,2101_068d,01-Feb-2021 21:10:15,01-Feb-2021 13:10:15,34.05582,-122.94060,076.7 080.0,076.7,080.0,10.000,10.072,,12.6994,,12.6965,,12.6980,32.9043,,32.9101,32.9063,,32.9083,32.9092,5.6286,,5.8908,5.9727,5.5882,,5.9332,6.0123,5.9925,245.284,257.0235,211.9018,243.522,273.2121,213.0465,212.4742,0.0742,,0.3598,0.4855, ,, , ,24.8287,,24.8308,,0.7928,82.0220,,,,1.1026E+03,,8.2638E+00,,12.6981,12.6952,0.0375,311.334,93.142,92.469,10,,32.8911,6.089,265.77,0.507,0.048,,,,,
CalCOFI,2101RL,068,,2101_068d,01-Feb-2021 21:10:16,01-Feb-2021 13:10:16,34.05582,-122.94059,076.7 080.0,076.7,080.0,11.000,11.079,,12.4216,,12.4192,,12.4204,32.9170,,32.9228,32.9167,,32.9187,32.9208,5.7037,,5.9694,6.0527,5.6315,,5.9792,6.0592,6.0560,248.541,260.4329,214.4150,245.396,276.8339,214.5166,214.4658,0.0752,,0.3680,0.4767, ,, , ,24.8920,,24.8923,,0.7946,81.9843,,,,1.1049E+03,,7.4012E+00,,12.4201,12.4177,0.0406,305.328,93.848,92.656,11,,,, ,,,,,,,
CalCOFI,2101RL,068,,2101_068d,01-Feb-2021 21:10:21,01-Feb-2021 13:10:21,34.05582,-122.94056,076.7 080.0,076.7,080.0,12.000,12.087,,12.1172,,12.1066,,12.1119,32.9074,,32.9132,32.9052,,32.9072,32.9102,5.4846,,5.7401,5.8193,5.4553,,5.7921,5.8682,5.8438,238.982,250.4266,207.0390,237.704,266.2041,208.4824,207.7607,0.0662,,0.2942,0.5225, ,, , ,24.9425,,24.9428,,0.7821,82.2397,,,,1.1006E+03,,6.9303E+00,,12.1156,12.1051,0.0444,300.544,89.663,89.163,,,,,,,,,,,,
CalCOFI,2101RL,068,,2101_068d,01-Feb-2021 21:10:23,01-Feb-2021 13:10:23,34.05583,-122.94057,076.7 080.0,076.7,080.0,13.000,13.094,,11.6063,,11.5975,,11.6019,32.8533,,32.8591,32.8519,,32.8539,32.8565,5.5104,,5.7671,5.8468,5.4466,,5.7828,5.8588,5.8528,240.092,251.5885,207.8956,237.312,267.4385,208.1749,208.0353,0.0520,,0.1779,0.4427, ,, , ,24.9950,,24.9955,,0.7681,82.5289,,,,1.0940E+03,,5.8614E+00,,11.6047,11.5959,0.0476,295.557,89.091,88.043,,,,,,,,,,,,
CalCOFI,2101RL,068,,2101_068d,01-Feb-2021 21:10:38,01-Feb-2021 13:10:38,34.05585,-122.94057,076.7 080.0,076.7,080.0,14.000,14.101,,11.3255,,11.3270,,11.3263,32.8464,,32.8522,32.8445,,32.8465,32.8494,5.4606,,5.7150,5.7938,5.3510,,5.6813,5.7551,5.7745,237.912,249.3065,206.2134,233.139,265.0143,204.9013,205.5574,0.0467,,0.1345,0.3652, ,, , ,25.0412,,25.0394,,0.7559,82.7804,,,,1.0661E+03,,4.6412E+00,,11.3237,11.3253,0.0523,291.178,87.757,85.997,,,,,,,,,,,,
CalCOFI,2101RL,068,,2101_068d,01-Feb-2021 21:10:41,01-Feb-2021 13:10:41,34.05589,-122.94055,076.7 080.0,076.7,080.0,15.000,15.108,,11.3721,,11.3813,,11.3767,32.8722,,32.8780,32.8712,,32.8732,32.8756,5.4211,,5.6736,5.7517,5.3367,,5.6661,5.7396,5.7457,236.190,247.5039,204.8847,232.511,263.0994,204.4086,204.6467,0.0418,,0.0943,0.2705, ,, , ,25.0526,,25.0502,,0.7567,82.7638,,,,1.0657E+03,,4.3447E+00,,11.3703,11.3795,0.0567,290.114,87.224,85.881,,,,,,,,,,,,
CalCOFI,2101RL,068,,2101_068d,01-Feb-2021 21:10:48,01-Feb-2021 13:10:48,34.05592,-122.94052,076.7 080.0,076.7,080.0,16.000,16.116,,11.3549,,11.3556,,11.3553,32.8933,,32.8991,32.8920,,32.8940,32.8966,5.3572,,5.6067,5.6836,5.2617,,5.5865,5.6583,5.6710,233.399,244.5823,202.7311,229.241,259.9957,201.8434,202.2873,0.0408,,0.0861,0.2485, ,, , ,25.0722,,25.0711,,0.7516,82.8701,,,,1.0637E+03,,3.8441E+00,,11.3529,11.3537,0.0608,288.275,86.175,84.640,,,,,,,,,,,,
CalCOFI,2101RL,068,,2101_068d,01-Feb-2021 21:10:52,01-Feb-2021 13:10:52,34.05594,-122.94053,076.7 080.0,076.7,080.0,17.000,17.123,,11.3793,,11.3804,,11.3799,32.9079,,32.9137,32.9070,,32.9090,32.9114,5.3267,,5.5748,5.6511,5.2416,,5.5651,5.6365,5.6438,232.070,243.1911,201.7056,228.364,258.5179,201.1554,201.4305,0.0410,,0.0878,0.2529, ,, , ,25.0791,,25.0782,,0.7516,82.8686,,,,1.0645E+03,,3.6610E+00,,11.3772,11.3783,0.0637,287.638,85.737,84.369,,,,,,,,,,,,
CalCOFI,2101RL,068,,2101_068d,01-Feb-2021 21:10:58,01-Feb-2021 13:10:58,34.05594,-122.94051,076.7 080.0,076.7,080.0,18.000,18.130,,11.4044,,11.4034,,11.4039,32.9102,,32.9160,32.9127,,32.9147,32.9154,5.3394,,5.5881,5.6647,5.2443,,5.5680,5.6394,5.6521,232.625,243.7721,202.1338,228.481,259.1350,201.2472,201.6905,0.0409,,0.0869,0.2507, ,, , ,25.0765,,25.0785,,0.7498,82.9076,,,,1.0816E+03,,3.1756E+00,,11.4022,11.4012,0.0674,287.917,85.989,84.457,,,,,,,,,,,,
CalCOFI,2101RL,068,,2101_068d,01-Feb-2021 21:11:01,01-Feb-2021 13:11:01,34.05594,-122.94048,076.7 080.0,076.7,080.0,19.000,19.137,,11.4487,,11.4480,,11.4484,32.9497,,32.9555,32.9468,,32.9488,32.9522,5.2737,,5.5194,5.5947,5.1958,,5.5165,5.5869,5.5908,229.758,240.7709,199.9216,226.362,255.9469,199.5849,199.7533,0.0406,,0.0845,0.2439, ,, , ,25.0991,,25.0970,,0.7526,82.8488,,,,1.0875E+03,,2.8516E+00,,11.4464,11.4457,0.0709,285.785,85.032,83.773,,,,,,,,,,,,
CalCOFI,2101RL,068,,2101_068d,01-Feb-2021 21:11:05,01-Feb-2021 13:11:05,34.05596,-122.94050,076.7 080.0,076.7,080.0,20.000,20.145,,11.4725,,11.4740,,11.4733,32.9573,,32.9631,32.9561,,32.9581,32.9606,5.3221,,5.5700,5.6462,5.2218,,5.5441,5.6151,5.6307,231.867,242.9786,201.5489,227.498,258.2921,200.4761,201.0125,0.0424,,0.0992,0.2833, ,, , ,25.1007,,25.0995,,0.7528,82.8455,,,,1.0967E+03,,2.8257E+00,,11.4700,11.4715,0.0738,285.659,85.860,84.244,20,,33.0293,5.779,252.22,0.599,0.172,,,,,
CalCOFI,2101RL,068,,2101_068d,01-Feb-2021 21:11:07,01-Feb-2021 13:11:07,34.05598,-122.94052,076.7 080.0,076.7,080.0,21.000,21.152,,11.5731,,11.5794,,11.5763,32.9944,,33.0002,32.9958,,32.9978,32.9990,5.3983,,5.6498,5.7274,5.3015,,5.6287,5.7015,5.7145,235.184,246.4508,204.1084,230.963,261.9807,203.1943,203.6514,0.0489,,0.1525,0.4006, ,, , ,25.1112,,25.1112,,0.7569,82.7602,,,,1.1049E+03,,2.6992E+00,,11.5705,11.5767,0.0766,284.690,87.296,85.742,,,,,,,,,,,,
CalCOFI,2101RL,068,,2101_068d,01-Feb-2021 21:11:12,01-Feb-2021 13:11:12,34.05598,-122.94049,076.7 080.0,076.7,080.0,22.000,22.159,,11.6761,,11.6784,,11.6773,33.0312,,33.0370,33.0309,,33.0329,33.0350,5.3620,,5.6118,5.6887,5.2838,,5.6099,5.6823,5.6855,233.601,244.7937,202.8869,230.191,260.2204,202.5887,202.7378,0.0562,,0.2123,0.4857, ,, , ,25.1210,,25.1203,,0.7653,82.5870,,,,1.1249E+03,,2.3181E+00,,11.6734,11.6757,0.0795,283.790,86.919,85.654,,,,,,,,,,,,
CalCOFI,2101RL,068,,2101_068d,01-Feb-2021 21:11:15,01-Feb-2021 13:11:15,34.05598,-122.94048,076.7 080.0,076.7,080.0,23.000,23.167,,11.5848,,11.5812,,11.5830,33.0214,,33.0272,33.0202,,33.0222,33.0247,5.3022,,5.5492,5.6250,5.2245,,5.5469,5.6180,5.6215,230.990,242.0605,200.8722,227.607,257.3169,200.5616,200.7169,0.0586,,0.2320,0.5030, ,, , ,25.1301,,25.1298,,0.7673,82.5445,,,,1.1318E+03,,2.1269E+00,,11.5819,11.5784,0.0824,282.943,85.777,84.513,,,,,,,,,,,,
CalCOFI,2101RL,068,,2101_068d,01-Feb-2021 21:11:18,01-Feb-2021 13:11:18,34.05598,-122.94048,076.7 080.0,076.7,080.0,24.000,24.174,,11.5315,,11.5322,,11.5319,33.0169,,33.0227,33.0153,,33.0173,33.0200,5.3237,,5.5717,5.6479,5.2325,,5.5554,5.6267,5.6373,231.926,243.0403,201.5945,227.955,258.3577,200.8346,201.2146,0.0528,,0.1844,0.4522, ,, , ,25.1364,,25.1350,,0.7641,82.6110,,,,1.1387E+03,,1.9390E+00,,11.5286,11.5292,0.0852,282.366,86.025,84.553,,,,,,,,,,,,
CalCOFI,2101RL,068,,2101_068d,01-Feb-2021 21:11:20,01-Feb-2021 13:11:20,34.05600,-122.94050,076.7 080.0,076.7,080.0,25.000,25.181,,11.5001,,11.5032,,11.5017,33.0228,,33.0286,33.0216,,33.0236,33.0261,5.4438,,5.6974,5.7759,5.2951,,5.6219,5.6945,5.7352,237.155,248.5141,205.6293,230.678,264.1725,202.9707,204.3000,0.0529,,0.1853,0.4533, ,, , ,25.1467,,25.1452,,0.7610,82.6758,,,,1.1466E+03,,1.8427E+00,,11.4970,11.5001,0.0881,281.404,87.911,85.515,,,,,,,,,,,,
CalCOFI,2101RL,068,,2101_068d,01-Feb-2021 21:11:22,01-Feb-2021 13:11:22,34.05601,-122.94049,076.7 080.0,076.7,080.0,26.000,26.189,,11.5944,,11.5968,,11.5956,33.0576,,33.0634,33.0566,,33.0586,33.0610,5.4289,,5.6818,5.7600,5.3080,,5.6356,5.7085,5.7343,236.504,247.8326,205.1270,231.238,263.4486,203.4100,204.2685,0.0624,,0.2631,0.5194, ,, , ,25.1566,,25.1553,,0.7678,82.5342,,,,1.1552E+03,,1.6570E+00,,11.5911,11.5936,0.0909,280.497,87.864,85.912,,,,,,,,,,,,
CalCOFI,2101RL,068,,2101_068d,01-Feb-2021 21:11:25,01-Feb-2021 13:11:25,34.05601,-122.94047,076.7 080.0,076.7,080.0,27.000,27.196,,11.6078,,11.6025,,11.6052,33.0671,,33.0729,33.0646,,33.0666,33.0698,5.4078,,5.6597,5.7375,5.3083,,5.6359,5.7088,5.7232,235.583,246.8685,204.4163,231.250,262.4244,203.4194,203.9179,0.0682,,0.3106,0.5188, ,, , ,25.1615,,25.1605,,0.7740,82.4073,,,,1.1681E+03,,1.4811E+00,,11.6045,11.5991,0.0937,280.050,87.553,85.931,,,,,,,,,,,,
CalCOFI,2101RL,068,,2101_068d,01-Feb-2021 21:11:29,01-Feb-2021 13:11:29,34.05600,-122.94046,076.7 080.0,076.7,080.0,28.000,28.203,,11.6131,,11.6179,,11.6155,33.0813,,33.0871,33.0809,,33.0829,33.0850,5.5748,,5.8345,5.9154,5.4414,,5.7773,5.8531,5.8843,242.858,254.4840,210.0299,237.047,270.5143,207.9670,208.9985,0.0646,,0.2811,0.5228, ,, , ,25.1716,,25.1704,,0.7711,82.4659,,,,1.1802E+03,,1.2809E+00,,11.6096,11.6144,0.0965,279.119,90.276,88.125,,,,,,,,,,,,
CalCOFI,2101RL,068,,2101_068d,01-Feb-2021 21:11:31,01-Feb-2021 13:11:31,34.05600,-122.94046,076.7 080.0,076.7,080.0,29.000,29.211,,11.7698,,11.7725,,11.7712,33.1401,,33.1459,33.1390,,33.1410,33.1435,5.5856,,5.8458,5.9269,5.4747,,5.8127,5.8892,5.9081,243.324,254.9718,210.3895,238.494,271.0325,209.1021,209.7458,0.0764,,0.3778,0.4649, ,, , ,25.1884,,25.1871,,0.7781,82.3219,,,,1.1835E+03,,1.1537E+00,,11.7661,11.7688,0.0993,277.550,90.784,88.986,,,,,,,,,,,,
CalCOFI,2101RL,068,,2101_068d,01-Feb-2021 21:11:33,01-Feb-2021 13:11:33,34.05602,-122.94044,076.7 080.0,076.7,080.0,30.000,30.218,,11.8130,,11.8139,,11.8135,33.1568,,33.1626,33.1558,,33.1578,33.1602,5.5765,,5.8363,5.9172,5.4667,,5.8042,5.8806,5.8989,242.925,254.5541,210.0816,238.146,270.5888,208.8291,209.4554,0.0822,,0.4254,0.3893, ,, , ,25.1934,,25.1924,,0.7814,82.2538,,,,1.1886E+03,,1.0472E+00,,11.8092,11.8101,0.1021,277.103,90.728,88.944,,,,,,,,,,,,
CalCOFI,2101RL,068,,2101_068d,01-Feb-2021 21:11:35,01-Feb-2021 13:11:35,34.05602,-122.94044,076.7 080.0,076.7,080.0,31.000,31.225,,11.8207,,11.8209,,11.8208,33.1663,,33.1721,33.1650,,33.1670,33.1696,5.5684,,5.8278,5.9086,5.4654,,5.8028,5.8792,5.8939,242.574,254.1867,209.8107,238.085,270.1985,208.7813,209.2960,0.0794,,0.4024,0.4297, ,, , ,25.1994,,25.1983,,0.7810,82.2637,,,,1.1946E+03,,9.2914E-01,,11.8168,11.8169,0.1049,276.560,90.617,88.940,,,,,,,,,,,,
CalCOFI,2101RL,068,,2101_068d,01-Feb-2021 21:11:37,01-Feb-2021 13:11:37,34.05604,-122.94042,076.7 080.0,076.7,080.0,32.000,32.233,,11.8090,,11.8090,,11.8090,33.1691,,33.1749,33.1679,,33.1699,33.1724,5.5720,,5.8316,5.9124,5.4719,,5.8097,5.8862,5.8993,242.728,254.3479,209.9296,238.369,270.3697,209.0041,209.4669,0.0819,,0.4229,0.3940, ,, , ,25.2037,,25.2028,,0.7800,82.2836,,,,1.2008E+03,,8.0687E-01,,11.8049,11.8050,0.1077,276.171,90.655,89.026,,,,,,,,,,,,
CalCOFI,2101RL,068,,2101_068d,01-Feb-2021 21:11:41,01-Feb-2021 13:11:41,34.05602,-122.94042,076.7 080.0,076.7,080.0,33.000,33.240,,11.7930,,11.7935,,11.7933,33.1687,,33.1745,33.1672,,33.1692,33.1719,5.5487,,5.8072,5.8876,5.4621,,5.7993,5.8756,5.8816,241.714,253.2864,209.1471,237.941,269.2422,208.6683,208.9077,0.0824,,0.4270,0.3861, ,, , ,25.2064,,25.2052,,0.7830,82.2224,,,,1.2144E+03,,6.3851E-01,,11.7888,11.7894,0.1109,275.944,90.245,88.837,,,,,,,,,,,,
CalCOFI,2101RL,068,,2101_068d,01-Feb-2021 21:11:43,01-Feb-2021 13:11:43,34.05602,-122.94042,076.7 080.0,076.7,080.0,34.000,34.247,,11.7781,,11.7788,,11.7785,33.1703,,33.1761,33.1698,,33.1718,33.1740,5.5233,,5.7806,5.8606,5.4392,,5.7750,5.8507,5.8557,240.605,252.1255,208.2914,236.941,268.0089,207.8839,208.0877,0.0833,,0.4344,0.3714, ,, , ,25.2104,,25.2099,,0.7806,82.2707,,,,1.2166E+03,,5.4729E-01,,11.7738,11.7745,0.1138,275.580,89.804,88.438,,,,,,,,,,,,
CalCOFI,2101RL,068,,2101_068d,01-Feb-2021 21:11:44,01-Feb-2021 13:11:44,34.05602,-122.94042,076.7 080.0,076.7,080.0,35.000,35.255,,11.7571,,11.7557,,11.7564,33.1756,,33.1814,33.1742,,33.1762,33.1788,5.5173,,5.7743,5.8542,5.4317,,5.7670,5.8426,5.8484,240.339,251.8471,208.0862,236.614,267.7131,207.6273,207.8568,0.0815,,0.4196,0.4001, ,, , ,25.2185,,25.2176,,0.7803,82.2778,,,,1.2210E+03,,4.2505E-01,,11.7526,11.7512,0.1165,274.836,89.669,88.276,,,,,,,,,,,,
CalCOFI,2101RL,068,,2101_068d,01-Feb-2021 21:11:45,01-Feb-2021 13:11:45,34.05602,-122.94042,076.7 080.0,076.7,080.0,36.000,36.262,,11.7239,,11.7251,,11.7245,33.1728,,33.1786,33.1713,,33.1733,33.1760,5.5044,,5.7608,5.8404,5.4226,,5.7573,5.8328,5.8366,239.778,251.2598,207.6533,236.215,267.0893,207.3143,207.4838,0.0811,,0.4163,0.4060, ,, , ,25.2225,,25.2211,,0.7775,82.3345,,,,1.2281E+03,,3.0505E-01,,11.7194,11.7206,0.1193,274.482,89.396,88.069,,,,,,,,,,,,
CalCOFI,2101RL,068,,2101_068d,01-Feb-2021 21:11:48,01-Feb-2021 13:11:48,34.05602,-122.94041,076.7 080.0,076.7,080.0,37.000,37.269,,11.6918,,11.6918,,11.6918,33.1715,,33.1773,33.1699,,33.1719,33.1746,5.4998,,5.7560,5.8355,5.4077,,5.7415,5.8166,5.8261,239.575,251.0473,207.4966,235.563,266.8636,206.8029,207.1498,0.0712,,0.3352,0.5063, ,, , ,25.2274,,25.2262,,0.7720,82.4485,,,,1.2309E+03,,1.8989E-01,,11.6872,11.6871,0.1221,274.035,89.260,87.764,,,,,,,,,,,,
CalCOFI,2101RL,068,,2101_068d,01-Feb-2021 21:11:50,01-Feb-2021 13:11:50,34.05602,-122.94040,076.7 080.0,076.7,080.0,38.000,38.277,,11.6815,,11.6807,,11.6811,33.1852,,33.1910,33.1841,,33.1861,33.1886,5.4335,,5.6866,5.7649,5.3680,,5.6994,5.7736,5.7693,236.685,248.0221,205.2666,233.833,263.6498,205.4457,205.3562,0.0754,,0.3696,0.4748, ,, , ,25.2400,,25.2393,,0.7701,82.4866,,,,1.2304E+03,,1.0151E-01,,11.6767,11.6759,0.1248,272.863,88.172,87.108,,,,,,,,,,,,
CalCOFI,2101RL,068,,2101_068d,01-Feb-2021 21:11:52,01-Feb-2021 13:11:52,34.05602,-122.94041,076.7 080.0,076.7,080.0,39.000,39.284,,11.6499,,11.6484,,11.6492,33.2006,,33.2064,33.1994,,33.2014,33.2039,5.3891,,5.6401,5.7176,5.2966,,5.6235,5.6961,5.7069,234.749,245.9955,203.7728,230.718,261.4970,203.0021,203.3875,0.0657,,0.2902,0.5229, ,, , ,25.2578,,25.2571,,0.7673,82.5441,,,,1.2321E+03,,3.7019E-02,,11.6450,11.6435,0.1276,271.188,87.403,85.898,,,,,,,,,,,,
CalCOFI,2101RL,068,,2101_068d,01-Feb-2021 21:11:54,01-Feb-2021 13:11:54,34.05602,-122.94042,076.7 080.0,076.7,080.0,40.000,40.292,,11.6110,,11.6106,,11.6108,33.1969,,33.2027,33.1955,,33.1975,33.2001,5.4058,,5.6576,5.7354,5.2919,,5.6185,5.6911,5.7133,235.475,246.7554,204.3329,230.514,262.3043,202.8420,203.5875,0.0626,,0.2648,0.5199, ,, , ,25.2621,,25.2611,,0.7638,82.6178,,,,1.2343E+03,,-5.433E-04,,11.6060,11.6056,0.1303,270.804,87.599,85.752,,,,,,,,,,,,
CalCOFI,2101RL,068,,2101_068d,01-Feb-2021 21:11:55,01-Feb-2021 13:11:55,34.05602,-122.94042,076.7 080.0,076.7,080.0,41.000,41.299,,11.5547,,11.5540,,11.5544,33.1930,,33.1988,33.1921,,33.1941,33.1965,5.4411,,5.6946,5.7730,5.3323,,5.6614,5.7349,5.7540,237.012,248.3644,205.5189,232.272,264.0135,204.2211,204.8700,0.0690,,0.3172,0.5163, ,, , ,25.2694,,25.2688,,0.7607,82.6817,,,,1.2359E+03,,1.0000E-12,,11.5496,11.5488,0.1330,270.124,88.064,86.301,,,,,,,,,,,,
CalCOFI,2101RL,068,,2101_068d,01-Feb-2021 21:11:57,01-Feb-2021 13:11:57,34.05602,-122.94040,076.7 080.0,076.7,080.0,42.000,42.306,,11.6080,,11.6093,,11.6087,33.2182,,33.2240,33.2173,,33.2193,33.2217,5.4248,,5.6775,5.7556,5.3351,,5.6644,5.7379,5.7468,236.298,247.6169,204.9680,232.391,263.2195,204.3145,204.6413,0.0677,,0.3065,0.5201, ,, , ,25.2793,,25.2783,,0.7629,82.6364,,,,1.2381E+03,,1.0000E-12,,11.6027,11.6041,0.1357,269.218,87.913,86.461,,,,,,,,,,,,
CalCOFI,2101RL,068,,2101_068d,01-Feb-2021 21:12:01,01-Feb-2021 13:12:01,34.05600,-122.94038,076.7 080.0,076.7,080.0,43.000,43.314,,11.6134,,11.6096,,11.6115,33.2301,,33.2359,33.2284,,33.2304,33.2332,5.2146,,5.4575,5.5317,5.1899,,5.5102,5.5805,5.5561,227.142,238.0324,197.9030,226.062,253.0379,199.3496,198.6263,0.0696,,0.3221,0.5140, ,, , ,25.2875,,25.2869,,0.7630,82.6349,,,,1.2355E+03,,1.0000E-12,,11.6080,11.6042,0.1385,268.462,84.524,84.114,,,,,,,,,,,,
CalCOFI,2101RL,068,,2101_068d,01-Feb-2021 21:12:02,01-Feb-2021 13:12:02,34.05602,-122.94038,076.7 080.0,076.7,080.0,44.000,44.321,,11.5168,,11.5140,,11.5154,33.2171,,33.2229,33.2158,,33.2178,33.2204,5.2158,,5.4588,5.5330,5.1567,,5.4749,5.5445,5.5388,227.193,238.0858,197.9423,224.615,253.0946,198.2144,198.0784,0.0623,,0.2623,0.5192, ,, , ,25.2951,,25.2946,,0.7619,82.6566,,,,1.2366E+03,,1.0000E-12,,11.5113,11.5086,0.1412,267.749,84.363,83.400,,,,,,,,,,,,
CalCOFI,2101RL,068,,2101_068d,01-Feb-2021 21:12:04,01-Feb-2021 13:12:04,34.05602,-122.94038,076.7 080.0,076.7,080.0,45.000,45.329,,11.4482,,11.4457,,11.4470,33.2108,,33.2166,33.2100,,33.2120,33.2143,5.2960,,5.5427,5.6184,5.1825,,5.5023,5.5724,5.5954,230.683,241.7392,200.6353,225.738,256.9755,199.0954,199.8654,0.0592,,0.2369,0.5065, ,, , ,25.3028,,25.3026,,0.7590,82.7175,,,,1.2395E+03,,1.0000E-12,,11.4426,11.4401,0.1439,267.039,85.532,83.693,,,,,,,,,,,,
CalCOFI,2101RL,068,,2101_068d,01-Feb-2021 21:12:05,01-Feb-2021 13:12:05,34.05602,-122.94038,076.7 080.0,076.7,080.0,46.000,46.336,,11.3986,,11.3985,,11.3986,33.2116,,33.2174,33.2102,,33.2122,33.2148,5.3829,,5.6336,5.7110,5.2449,,5.5686,5.6401,5.6756,234.466,245.6992,203.5544,228.456,261.1823,201.2276,202.3910,0.0594,,0.2385,0.5076, ,, , ,25.3125,,25.3114,,0.7565,82.7683,,,,1.2406E+03,,1.0000E-12,,11.3929,11.3928,0.1466,266.136,86.844,84.617,,,,,,,,,,,,
CalCOFI,2101RL,068,,2101_068d,01-Feb-2021 21:12:06,01-Feb-2021 13:12:06,34.05602,-122.94036,076.7 080.0,076.7,080.0,47.000,47.343,,11.4131,,11.4148,,11.4140,33.2294,,33.2352,33.2283,,33.2303,33.2328,5.4075,,5.6594,5.7372,5.2736,,5.5991,5.6712,5.7042,235.532,246.8151,204.3769,229.701,262.3677,202.2043,203.2906,0.0592,,0.2369,0.5065, ,, , ,25.3237,,25.3225,,0.7568,82.7622,,,,1.2439E+03,,1.0000E-12,,11.4073,11.4090,0.1492,265.098,87.277,85.118,,,,,,,,,,,,
CalCOFI,2101RL,068,,2101_068d,01-Feb-2021 21:12:08,01-Feb-2021 13:12:08,34.05602,-122.94034,076.7 080.0,076.7,080.0,48.000,48.351,,11.4815,,11.4885,,11.4850,33.2557,,33.2615,33.2559,,33.2579,33.2597,5.4178,,5.6702,5.7482,5.2938,,5.6205,5.6931,5.7207,235.979,247.2830,204.7218,230.581,262.8647,202.8946,203.8082,0.0577,,0.2246,0.4971, ,, , ,25.3317,,25.3305,,0.7578,82.7422,,,,1.2463E+03,,1.0000E-12,,11.4755,11.4825,0.1522,264.368,87.585,85.594,,,,,,,,,,,,
CalCOFI,2101RL,068,,2101_068d,01-Feb-2021 21:12:12,01-Feb-2021 13:12:12,34.05602,-122.94034,076.7 080.0,076.7,080.0,49.000,49.358,,11.5672,,11.5684,,11.5678,33.2826,,33.2884,33.2804,,33.2824,33.2854,5.4894,,5.7451,5.8244,5.3766,,5.7085,5.7829,5.8037,239.099,250.5490,207.1293,234.188,266.3342,205.7242,206.4268,0.0608,,0.2500,0.5141, ,, , ,25.3370,,25.3350,,0.7590,82.7163,,,,1.2391E+03,,1.0000E-12,,11.5610,11.5623,0.1553,263.901,88.919,87.094,,,,,,,,,,,,
CalCOFI,2101RL,068,,2101_068d,01-Feb-2021 21:12:14,01-Feb-2021 13:12:14,34.05602,-122.94034,076.7 080.0,076.7,080.0,50.000,50.366,,11.6066,,11.6057,,11.6062,33.2963,,33.3021,33.2951,,33.2971,33.2996,5.4516,,5.7055,5.7842,5.3728,,5.7045,5.7788,5.7815,237.451,248.8239,205.8577,234.020,264.5016,205.5924,205.7251,0.0621,,0.2607,0.5186, ,, , ,25.3404,,25.3396,,0.7596,82.7048,,,,1.2417E+03,,1.0000E-12,,11.6004,11.5994,0.1579,263.605,88.388,87.109,50,,33.2826,5.704,248.90,0.464,0.255,,,,,
CalCOFI,2101RL,068,,2101_068d,01-Feb-2021 21:12:15,01-Feb-2021 13:12:15,34.05602,-122.94034,076.7 080.0,076.7,080.0,51.000,51.373,,11.5820,,11.5819,,11.5820,33.2981,,33.3039,33.2965,,33.2985,33.3012,5.4433,,5.6969,5.7753,5.3647,,5.6958,5.7700,5.7727,237.089,248.4450,205.5784,233.665,264.0991,205.3139,205.4462,0.0584,,0.2303,0.5018, ,, , ,25.3463,,25.3451,,0.7606,82.6831,,,,1.2433E+03,,1.0000E-12,,11.5756,11.5755,0.1606,263.063,88.209,86.934,,,,,,,,,,,,
CalCOFI,2101RL,068,,2101_068d,01-Feb-2021 21:12:16,01-Feb-2021 13:12:16,34.05602,-122.94032,076.7 080.0,076.7,080.0,52.000,52.381,,11.5765,,11.5768,,11.5767,33.2977,,33.3035,33.2962,,33.2982,33.3009,5.4509,,5.7048,5.7834,5.3619,,5.6929,5.7669,5.7752,237.419,248.7904,205.8330,233.542,264.4661,205.2174,205.5252,0.0616,,0.2566,0.5171, ,, , ,25.3470,,25.3458,,0.7607,82.6821,,,,1.2433E+03,,1.0000E-12,,11.5700,11.5703,0.1632,263.016,88.322,86.879,,,,,,,,,,,,